Flag for U.S.A. Weather past 2 weeks in Lexington-Fayette, Kentucky, U.S.A.

Now
54 °F

Sunny.


Feels Like: 49 °F
Forecast: 20 / 56 °F
Wind: 17 mph from Southwest

Location: Blue Grass Airport

Current Time: Mar 29, 2015 at 4:02:33 PM

Latest Report: Mar 29, 2015 at 2:54 PM


Visibility: 10 mi

Pressure: 30.20 "Hg

Humidity: 18%

Dew point: 11 °F

Location of Lexington-FayetteLocation

Historic Weather in Lexington-Fayette — Graph

°F

Lexington-Fayette temperature yesterday

Maximum temperature yesterday: 40 °F (at 3:54 PM)
Minimum temperature yesterday: 20 °F (at 5:54 AM)
Average temperature yesterday: 29 °F

Past Weeks' High & Low Weather Summary

 TemperatureHumidityPressure
High73 °F (Mar 16, 2:54 PM)100% (Mar 20, 4:54 AM)30.38 "Hg (Mar 20, 4:54 AM)
Low20 °F (Mar 28, 5:54 AM)18% (Mar 29, 2:54 PM)29.79 "Hg (Mar 26, 5:54 AM)
Average46 °F64%30.12 "Hg
* Reported Mar 14 2:54 PM — Mar 29 2:54 PM, Lexington-Fayette, Weather by CustomWeather, © 2015

Note: Actual official high and low records may vary slightly from our data, if they occured in-between our weather recording intervals... More about our weather records

Advertising

Lexington-Fayette weather history for previous 24 hours

 ConditionsComfort  
Time TempWeatherWind HumidityBarometerVisibility
2:54 PM
Sun, Mar 29
54 °FSunny.17 mph18%30.20 "Hg10 mi
1:54 PM50 °FSunny.16 mph21%30.25 "Hg10 mi
12:54 PM46 °FSunny.13 mph26%30.30 "Hg10 mi
11:54 AM43 °FSunny.16 mph31%30.32 "Hg10 mi
10:54 AM38 °FSunny.14 mph41%30.36 "Hg10 mi
9:54 AM33 °FSunny.13 mph49%30.38 "Hg10 mi
8:54 AM28 °FSunny.10 mph56%30.37 "Hg10 mi
7:54 AM25 °FClear.8 mph60%30.37 "Hg10 mi
6:54 AM24 °FClear.9 mph62%30.36 "Hg10 mi
5:54 AM24 °FClear.7 mph62%30.37 "Hg10 mi
4:54 AM24 °FClear.6 mph60%30.36 "Hg10 mi
3:54 AM25 °FClear.7 mph60%30.37 "Hg10 mi
2:54 AM26 °FClear.6 mph57%30.38 "Hg10 mi
1:54 AM28 °FClear.5 mph53%30.37 "Hg10 mi
12:54 AM28 °FClear.5 mph53%30.38 "Hg10 mi
11:54 PM
Sat, Mar 28
30 °FClear.3 mph49%30.37 "Hg10 mi
10:54 PM28 °FClear.7 mph51%30.36 "Hg10 mi
9:54 PM29 °FClear.9 mph51%30.34 "Hg10 mi
8:54 PM33 °FSunny.5 mph40%30.32 "Hg10 mi
7:54 PM34 °FSunny.6 mph40%30.31 "Hg10 mi
6:54 PM38 °FSunny.7 mph31%30.30 "Hg10 mi
5:54 PM38 °FSunny.5 mph34%30.28 "Hg10 mi
4:54 PM40 °FSunny.5 mph35%30.27 "Hg10 mi
Weather by CustomWeather, © 2015

See weather overviewHow to use our weather pages